Flag for Canada Weather past 2 weeks in Greater Sudbury, Ontario, Canada

Now
64 °F

Broken clouds.


Feels Like: 64 °F
Forecast: 50 / 67 °F
Wind: 7 mph from West

Location: Sudbury

Current Time: Aug 4, 2015 at 2:28:10 PM

Latest Report: Aug 4, 2015 at 1:00 PM


Visibility: 20 mi

Pressure: 29.83 "Hg

Humidity: 64%

Dew point: 52 °F

Location of Greater SudburyLocation

Historic Weather in Greater Sudbury — Graph

°F

Greater Sudbury temperature yesterday

Maximum temperature yesterday: 73 °F (at 3:00 PM)
Minimum temperature yesterday: 59 °F (at 11:00 PM)
Average temperature yesterday: 64 °F

Past Weeks' High & Low Weather Summary

 TemperatureHumidityPressure
High91 °F (Jul 28, 4:00 PM)100% (Jul 25, 11:00 AM)30.01 "Hg (Jul 25, 11:00 AM)
Low50 °F (Jul 22, 2:00 AM)27% (Jul 24, 6:00 PM)29.53 "Hg (Aug 3, 1:45 AM)
Average68 °F69%29.80 "Hg
* Reported Jul 20 1:00 PM — Aug 4 1:00 PM, Greater Sudbury, Weather by CustomWeather, © 2015

Note: Actual official high and low records may vary slightly from our data, if they occured in-between our weather recording intervals... More about our weather records

Advertising

Greater Sudbury weather history for previous 24 hours

 ConditionsComfort  
Time TempWeatherWind HumidityBarometerVisibility
1:00 PM
Tue, Aug 4
64 °FBroken clouds.7 mph64%29.83 "Hg20 mi
12:00 PM61 °FPartly sunny.7 mph68%29.84 "Hg20 mi
11:00 AM59 °FPartly sunny.10 mph77%29.83 "Hg20 mi
10:00 AM57 °FPartly sunny.8 mph77%29.83 "Hg20 mi
9:00 AM55 °FPartly sunny.9 mph88%29.82 "Hg20 mi
8:00 AM54 °FScattered clouds.7 mph88%29.82 "Hg20 mi
7:00 AM50 °FPassing clouds.3 mph94%29.81 "Hg20 mi
6:00 AM50 °FPassing clouds.3 mph94%29.79 "Hg20 mi
5:00 AM50 °FPassing clouds.3 mph94%29.77 "Hg15 mi
4:00 AM52 °FPassing clouds.6 mph88%29.75 "Hg15 mi
3:00 AM54 °FPassing clouds.6 mph82%29.74 "Hg15 mi
2:00 AM54 °FPassing clouds.7 mph88%29.74 "Hg15 mi
1:00 AM55 °FPartly cloudy.6 mph88%29.73 "Hg15 mi
12:00 AM57 °FPartly cloudy.7 mph88%29.73 "Hg15 mi
11:00 PM
Mon, Aug 3
59 °FPartly cloudy.6 mph77%29.72 "Hg15 mi
10:00 PM61 °FPassing clouds.5 mph77%29.71 "Hg15 mi
9:00 PM63 °FPartly sunny.7 mph77%29.69 "Hg20 mi
8:00 PM63 °FPartly sunny.7 mph77%29.69 "Hg20 mi
7:00 PM64 °FPartly sunny.7 mph83%29.67 "Hg20 mi
6:00 PM64 °FPartly sunny.9 mph83%29.67 "Hg20 mi
5:00 PM61 °FPartly sunny.10 mph88%29.67 "Hg15 mi
4:00 PM70 °FSprinkles. Partly sunny.10 mph60%29.65 "Hg20 mi
3:00 PM73 °FSprinkles. Partly sunny.9 mph53%29.63 "Hg15 mi
2:00 PM72 °FSprinkles. Partly sunny.9 mph65%29.64 "Hg20 mi
Weather by CustomWeather, © 2015

See weather overviewHow to use our weather pages